Year,Month,Day,Hour,Minute,Value (Times are PST for windgust in km/hr)
2017,01,10,00,00,9.60
2017,01,10,00,01,14.50
2017,01,10,00,02,11.30
2017,01,10,00,03,11.30
2017,01,10,00,04,11.30
2017,01,10,00,05,11.30
2017,01,10,00,06,4.80
2017,01,10,00,07,14.50
2017,01,10,00,08,11.30
2017,01,10,00,09,9.60
2017,01,10,00,10,9.60
2017,01,10,00,11,16.10
2017,01,10,00,12,12.90
2017,01,10,00,13,9.60
2017,01,10,00,14,19.30
2017,01,10,00,15,20.90
2017,01,10,00,16,14.50
2017,01,10,00,17,22.50
2017,01,10,00,18,20.90
2017,01,10,00,19,17.70
2017,01,10,00,20,17.70
2017,01,10,00,21,14.50
2017,01,10,00,22,9.60
2017,01,10,00,23,11.30
2017,01,10,00,24,9.60
2017,01,10,00,25,8.10
2017,01,10,00,26,8.10
2017,01,10,00,27,9.60
2017,01,10,00,28,17.70
2017,01,10,00,29,14.50
2017,01,10,00,30,16.10
2017,01,10,00,31,11.30
2017,01,10,00,32,16.10
2017,01,10,00,33,14.50
2017,01,10,00,34,8.10
2017,01,10,00,35,9.60
2017,01,10,00,36,12.90
2017,01,10,00,37,12.90
2017,01,10,00,38,17.70
2017,01,10,00,39,17.70
2017,01,10,00,40,14.50
2017,01,10,00,41,16.10
2017,01,10,00,42,11.30
2017,01,10,00,43,6.40
2017,01,10,00,44,4.80
2017,01,10,00,45,17.70
2017,01,10,00,46,16.10
2017,01,10,00,47,17.70
2017,01,10,00,48,12.90
2017,01,10,00,49,17.70
2017,01,10,00,50,16.10
2017,01,10,00,51,11.30
2017,01,10,00,52,17.70
2017,01,10,00,53,16.10
2017,01,10,00,54,16.10
2017,01,10,00,55,8.10
2017,01,10,00,56,9.60
2017,01,10,00,57,19.30
2017,01,10,00,58,9.60
2017,01,10,00,59,6.40
2017,01,10,01,00,9.60
2017,01,10,01,01,16.10
2017,01,10,01,02,11.30
2017,01,10,01,03,14.50
2017,01,10,01,04,16.10
2017,01,10,01,05,11.30
2017,01,10,01,06,14.50
2017,01,10,01,07,16.10
2017,01,10,01,08,11.30
2017,01,10,01,09,8.10
2017,01,10,01,10,17.70
2017,01,10,01,11,14.50
2017,01,10,01,12,8.10
2017,01,10,01,13,11.30
2017,01,10,01,14,16.10
2017,01,10,01,15,19.30
2017,01,10,01,16,19.30
2017,01,10,01,17,19.30
2017,01,10,01,18,9.60
2017,01,10,01,19,9.60
2017,01,10,01,20,11.30
2017,01,10,01,21,12.90
2017,01,10,01,22,14.50
2017,01,10,01,23,17.70
2017,01,10,01,24,17.70
2017,01,10,01,25,9.60
2017,01,10,01,26,8.10
2017,01,10,01,27,8.10
2017,01,10,01,28,16.10
2017,01,10,01,29,16.10
2017,01,10,01,30,14.50
2017,01,10,01,31,16.10
2017,01,10,01,32,16.10
2017,01,10,01,33,9.60
2017,01,10,01,34,14.50
2017,01,10,01,35,11.30
2017,01,10,01,36,14.50
2017,01,10,01,37,14.50
2017,01,10,01,38,9.60
2017,01,10,01,39,16.10
2017,01,10,01,40,9.60
2017,01,10,01,41,9.60
2017,01,10,01,42,11.30
2017,01,10,01,43,25.70
2017,01,10,01,44,17.70
2017,01,10,01,45,17.70
2017,01,10,01,46,16.10
2017,01,10,01,47,17.70
2017,01,10,01,48,17.70
2017,01,10,01,49,19.30
2017,01,10,01,50,19.30
2017,01,10,01,51,17.70
2017,01,10,01,52,14.50
2017,01,10,01,53,9.60
2017,01,10,01,54,17.70
2017,01,10,01,55,16.10
2017,01,10,01,56,11.30
2017,01,10,01,57,14.50
2017,01,10,01,58,11.30
2017,01,10,01,59,12.90
2017,01,10,02,00,19.30
2017,01,10,02,01,6.40
2017,01,10,02,02,9.60
2017,01,10,02,03,16.10
2017,01,10,02,04,6.40
2017,01,10,02,05,9.60
2017,01,10,02,06,11.30
2017,01,10,02,07,19.30
2017,01,10,02,08,16.10
2017,01,10,02,09,20.90
2017,01,10,02,10,11.30
2017,01,10,02,11,8.10
2017,01,10,02,12,19.30
2017,01,10,02,13,16.10
2017,01,10,02,14,8.10
2017,01,10,02,15,16.10
2017,01,10,02,16,17.70
2017,01,10,02,17,17.70
2017,01,10,02,18,17.70
2017,01,10,02,19,19.30
2017,01,10,02,20,17.70
2017,01,10,02,21,16.10
2017,01,10,02,22,11.30
2017,01,10,02,23,8.10
2017,01,10,02,24,6.40
2017,01,10,02,25,8.10
2017,01,10,02,26,20.90
2017,01,10,02,27,16.10
2017,01,10,02,28,16.10
2017,01,10,02,29,8.10
2017,01,10,02,30,20.90
2017,01,10,02,31,20.90
2017,01,10,02,32,24.20
2017,01,10,02,33,16.10
2017,01,10,02,34,16.10
2017,01,10,02,35,17.70
2017,01,10,02,36,16.10
2017,01,10,02,37,14.50
2017,01,10,02,38,9.60
2017,01,10,02,39,14.50
2017,01,10,02,40,12.90
2017,01,10,02,41,8.10
2017,01,10,02,42,9.60
2017,01,10,02,43,11.30
2017,01,10,02,44,16.10
2017,01,10,02,45,9.60
2017,01,10,02,46,22.50
2017,01,10,02,47,19.30
2017,01,10,02,48,9.60
2017,01,10,02,49,9.60
2017,01,10,02,50,11.30
2017,01,10,02,51,6.40
2017,01,10,02,52,6.40
2017,01,10,02,53,4.80
2017,01,10,02,54,29.00
2017,01,10,02,55,17.70
2017,01,10,02,56,6.40
2017,01,10,02,57,6.40
2017,01,10,02,58,19.30
2017,01,10,02,59,17.70
2017,01,10,03,00,6.40
2017,01,10,03,01,9.60
2017,01,10,03,02,9.60
2017,01,10,03,03,20.90
2017,01,10,03,04,16.10
2017,01,10,03,05,14.50
2017,01,10,03,06,3.20
2017,01,10,03,07,4.80
2017,01,10,03,08,14.50
2017,01,10,03,09,6.40
2017,01,10,03,10,8.10
2017,01,10,03,11,14.50
2017,01,10,03,12,9.60
2017,01,10,03,13,4.80
2017,01,10,03,14,11.30
2017,01,10,03,15,9.60
2017,01,10,03,16,8.10
2017,01,10,03,17,8.10
2017,01,10,03,18,8.10
2017,01,10,03,19,11.30
2017,01,10,03,20,19.30
2017,01,10,03,21,12.90
2017,01,10,03,22,14.50
2017,01,10,03,23,12.90
2017,01,10,03,24,8.10
2017,01,10,03,25,11.30
2017,01,10,03,26,11.30
2017,01,10,03,27,9.60
2017,01,10,03,28,20.90
2017,01,10,03,29,8.10
2017,01,10,03,30,9.60
2017,01,10,03,31,6.40
2017,01,10,03,32,4.80
2017,01,10,03,33,6.40
2017,01,10,03,34,11.30
2017,01,10,03,35,6.40
2017,01,10,03,36,6.40
2017,01,10,03,37,6.40
2017,01,10,03,38,4.80
2017,01,10,03,39,6.40
2017,01,10,03,40,6.40
2017,01,10,03,41,6.40
2017,01,10,03,42,9.60
2017,01,10,03,43,6.40
2017,01,10,03,44,6.40
2017,01,10,03,45,9.60
2017,01,10,03,46,9.60
2017,01,10,03,47,8.10
2017,01,10,03,48,3.20
2017,01,10,03,49,4.80
2017,01,10,03,50,11.30
2017,01,10,03,51,6.40
2017,01,10,03,52,6.40
2017,01,10,03,53,4.80
2017,01,10,03,54,4.80
2017,01,10,03,55,8.10
2017,01,10,03,56,6.40
2017,01,10,03,57,4.80
2017,01,10,03,58,8.10
2017,01,10,03,59,9.60
2017,01,10,04,00,8.10
2017,01,10,04,01,4.80
2017,01,10,04,02,1.60
2017,01,10,04,03,3.20
2017,01,10,04,04,6.40
2017,01,10,04,05,4.80
2017,01,10,04,06,4.80
2017,01,10,04,07,3.20
2017,01,10,04,08,3.20
2017,01,10,04,09,3.20
2017,01,10,04,10,1.60
2017,01,10,04,11,3.20
2017,01,10,04,12,3.20
2017,01,10,04,13,3.20
2017,01,10,04,14,3.20
2017,01,10,04,15,3.20
2017,01,10,04,16,3.20
2017,01,10,04,17,4.80
2017,01,10,04,18,4.80
2017,01,10,04,19,4.80
2017,01,10,04,20,3.20
2017,01,10,04,21,4.80
2017,01,10,04,22,4.80
2017,01,10,04,23,4.80
2017,01,10,04,24,3.20
2017,01,10,04,25,4.80
2017,01,10,04,26,4.80
2017,01,10,04,27,4.80
2017,01,10,04,28,6.40
2017,01,10,04,29,4.80
2017,01,10,04,30,6.40
2017,01,10,04,31,4.80
2017,01,10,04,32,4.80
2017,01,10,04,33,9.60
2017,01,10,04,34,6.40
2017,01,10,04,35,6.40
2017,01,10,04,36,9.60
2017,01,10,04,37,4.80
2017,01,10,04,38,6.40
2017,01,10,04,39,3.20
2017,01,10,04,40,8.10
2017,01,10,04,41,8.10
2017,01,10,04,42,6.40
2017,01,10,04,43,9.60
2017,01,10,04,44,3.20
2017,01,10,04,45,6.40
2017,01,10,04,46,8.10
2017,01,10,04,47,3.20
2017,01,10,04,48,3.20
2017,01,10,04,49,17.70
2017,01,10,04,50,4.80
2017,01,10,04,51,4.80
2017,01,10,04,52,4.80
2017,01,10,04,53,6.40
2017,01,10,04,54,6.40
2017,01,10,04,55,9.60
2017,01,10,04,56,11.30
2017,01,10,04,57,8.10
2017,01,10,04,58,17.70
2017,01,10,04,59,16.10
2017,01,10,05,00,17.70
2017,01,10,05,01,8.10
2017,01,10,05,02,9.60
2017,01,10,05,03,12.90
2017,01,10,05,04,19.30
2017,01,10,05,05,9.60
2017,01,10,05,06,9.60
2017,01,10,05,07,11.30
2017,01,10,05,08,14.50
2017,01,10,05,09,16.10
2017,01,10,05,10,11.30
2017,01,10,05,11,25.70
2017,01,10,05,12,14.50
2017,01,10,05,13,9.60
2017,01,10,05,14,16.10
2017,01,10,05,15,14.50
2017,01,10,05,16,14.50
2017,01,10,05,17,11.30
2017,01,10,05,18,11.30
2017,01,10,05,19,8.10
2017,01,10,05,20,16.10
2017,01,10,05,21,8.10
2017,01,10,05,22,11.30
2017,01,10,05,23,17.70
2017,01,10,05,24,9.60
2017,01,10,05,25,20.90
2017,01,10,05,26,14.50
2017,01,10,05,27,29.00
2017,01,10,05,28,17.70
2017,01,10,05,29,14.50
2017,01,10,05,30,11.30
2017,01,10,05,31,16.10
2017,01,10,05,32,14.50
2017,01,10,05,33,19.30
2017,01,10,05,34,12.90
2017,01,10,05,35,19.30
2017,01,10,05,36,17.70
2017,01,10,05,37,19.30
2017,01,10,05,38,9.60
2017,01,10,05,39,17.70
2017,01,10,05,40,19.30
2017,01,10,05,41,19.30
2017,01,10,05,42,17.70
2017,01,10,05,43,17.70
2017,01,10,05,44,17.70
2017,01,10,05,45,14.50
2017,01,10,05,46,17.70
2017,01,10,05,47,12.90
2017,01,10,05,48,19.30
2017,01,10,05,49,22.50
2017,01,10,05,50,20.90
2017,01,10,05,51,14.50
2017,01,10,05,52,14.50
2017,01,10,05,53,16.10
2017,01,10,05,54,17.70
2017,01,10,05,55,17.70
2017,01,10,05,56,20.90
2017,01,10,05,57,17.70
2017,01,10,05,58,22.50
2017,01,10,05,59,16.10
2017,01,10,06,00,25.70
2017,01,10,06,01,14.50
2017,01,10,06,02,14.50
2017,01,10,06,03,19.30
2017,01,10,06,04,20.90
2017,01,10,06,05,16.10
2017,01,10,06,06,17.70
2017,01,10,06,07,22.50
2017,01,10,06,08,22.50
2017,01,10,06,09,17.70
2017,01,10,06,10,25.70
2017,01,10,06,11,20.90
2017,01,10,06,12,22.50
2017,01,10,06,13,12.90
2017,01,10,06,14,20.90
2017,01,10,06,15,16.10
2017,01,10,06,16,14.50
2017,01,10,06,17,19.30
2017,01,10,06,18,24.20
2017,01,10,06,19,19.30
2017,01,10,06,20,22.50
2017,01,10,06,21,17.70
2017,01,10,06,22,19.30
2017,01,10,06,23,17.70
2017,01,10,06,24,20.90
2017,01,10,06,25,11.30
2017,01,10,06,26,24.20
2017,01,10,06,27,19.30
2017,01,10,06,28,20.90
2017,01,10,06,29,17.70
2017,01,10,06,30,25.70
2017,01,10,06,31,22.50
2017,01,10,06,32,22.50
2017,01,10,06,33,25.70
2017,01,10,06,34,16.10
2017,01,10,06,35,19.30
2017,01,10,06,36,24.20
2017,01,10,06,37,25.70
2017,01,10,06,38,25.70
2017,01,10,06,39,29.00
2017,01,10,06,40,24.20
2017,01,10,06,41,32.20
2017,01,10,06,42,27.40
2017,01,10,06,43,27.40
2017,01,10,06,44,29.00
2017,01,10,06,45,27.40
2017,01,10,06,46,24.20
2017,01,10,06,47,27.40
2017,01,10,06,48,17.70
2017,01,10,06,49,25.70
2017,01,10,06,50,24.20
2017,01,10,06,51,27.40
2017,01,10,06,52,24.20
2017,01,10,06,53,16.10
2017,01,10,06,54,24.20
2017,01,10,06,55,25.70
2017,01,10,06,56,24.20
2017,01,10,06,57,22.50
2017,01,10,06,58,17.70
2017,01,10,06,59,19.30
2017,01,10,07,00,30.60
2017,01,10,07,01,22.50
2017,01,10,07,02,17.70
2017,01,10,07,03,29.00
2017,01,10,07,04,22.50
2017,01,10,07,05,24.20
2017,01,10,07,06,27.40
2017,01,10,07,07,16.10
2017,01,10,07,08,19.30
2017,01,10,07,09,25.70
2017,01,10,07,10,25.70
2017,01,10,07,11,12.90
2017,01,10,07,12,20.90
2017,01,10,07,13,25.70
2017,01,10,07,14,22.50
2017,01,10,07,15,24.20
2017,01,10,07,16,17.70
2017,01,10,07,17,27.40
2017,01,10,07,18,27.40
2017,01,10,07,19,27.40
2017,01,10,07,20,17.70
2017,01,10,07,21,17.70
2017,01,10,07,22,25.70
2017,01,10,07,23,19.30
2017,01,10,07,24,30.60
2017,01,10,07,25,19.30
2017,01,10,07,26,30.60
2017,01,10,07,27,24.20
2017,01,10,07,28,20.90
2017,01,10,07,29,20.90
2017,01,10,07,30,27.40
2017,01,10,07,31,20.90
2017,01,10,07,32,17.70
2017,01,10,07,33,20.90
2017,01,10,07,34,17.70
2017,01,10,07,35,17.70
2017,01,10,07,36,22.50
2017,01,10,07,37,20.90
2017,01,10,07,38,33.80
2017,01,10,07,39,24.20
2017,01,10,07,40,30.60
2017,01,10,07,41,29.00
2017,01,10,07,42,11.30
2017,01,10,07,43,17.70
2017,01,10,07,44,20.90
2017,01,10,07,45,22.50
2017,01,10,07,46,24.20
2017,01,10,07,47,29.00
2017,01,10,07,48,29.00
2017,01,10,07,49,25.70
2017,01,10,07,50,22.50
2017,01,10,07,51,24.20
2017,01,10,07,52,24.20
2017,01,10,07,53,27.40
2017,01,10,07,54,22.50
2017,01,10,07,55,24.20
2017,01,10,07,56,24.20
2017,01,10,07,57,29.00
2017,01,10,07,58,20.90
2017,01,10,07,59,25.70
2017,01,10,08,00,24.20
2017,01,10,08,01,33.80
2017,01,10,08,02,25.70
2017,01,10,08,03,24.20
2017,01,10,08,04,27.40
2017,01,10,08,05,22.50
2017,01,10,08,06,25.70
2017,01,10,08,07,20.90
2017,01,10,08,08,24.20
2017,01,10,08,09,22.50
2017,01,10,08,10,25.70
2017,01,10,08,11,25.70
2017,01,10,08,12,25.70
2017,01,10,08,13,24.20
2017,01,10,08,14,22.50
2017,01,10,08,15,19.30
2017,01,10,08,16,22.50
2017,01,10,08,17,22.50
2017,01,10,08,18,24.20
2017,01,10,08,19,33.80
2017,01,10,08,20,24.20
2017,01,10,08,21,19.30
2017,01,10,08,22,17.70
2017,01,10,08,23,20.90
2017,01,10,08,24,29.00
2017,01,10,08,25,17.70
2017,01,10,08,26,17.70
2017,01,10,08,27,25.70
2017,01,10,08,28,27.40
2017,01,10,08,29,29.00
2017,01,10,08,30,25.70
2017,01,10,08,31,33.80
2017,01,10,08,32,19.30
2017,01,10,08,33,25.70
2017,01,10,08,34,27.40
2017,01,10,08,35,17.70
2017,01,10,08,36,25.70
2017,01,10,08,37,25.70
2017,01,10,08,38,20.90
2017,01,10,08,39,19.30
2017,01,10,08,40,19.30
2017,01,10,08,41,22.50
2017,01,10,08,42,22.50
2017,01,10,08,43,17.70
2017,01,10,08,44,20.90
2017,01,10,08,45,24.20
2017,01,10,08,46,17.70
2017,01,10,08,47,25.70
2017,01,10,08,48,25.70
2017,01,10,08,49,30.60
2017,01,10,08,50,14.50
2017,01,10,08,51,27.40
2017,01,10,08,52,22.50
2017,01,10,08,53,19.30
2017,01,10,08,54,25.70
2017,01,10,08,55,25.70
2017,01,10,08,56,25.70
2017,01,10,08,57,25.70
2017,01,10,08,58,20.90
2017,01,10,08,59,27.40
2017,01,10,09,00,33.80
2017,01,10,09,01,29.00
2017,01,10,09,02,25.70
2017,01,10,09,03,24.20
2017,01,10,09,04,30.60
2017,01,10,09,05,30.60
2017,01,10,09,06,19.30
2017,01,10,09,07,20.90
2017,01,10,09,08,29.00
2017,01,10,09,09,24.20
2017,01,10,09,10,24.20
2017,01,10,09,11,20.90
2017,01,10,09,12,27.40
2017,01,10,09,13,30.60
2017,01,10,09,14,24.20
2017,01,10,09,15,24.20
2017,01,10,09,16,20.90
2017,01,10,09,17,22.50
2017,01,10,09,18,20.90
2017,01,10,09,19,22.50
2017,01,10,09,20,22.50
2017,01,10,09,21,25.70
2017,01,10,09,22,22.50
2017,01,10,09,23,37.00
2017,01,10,09,24,29.00
2017,01,10,09,25,29.00
2017,01,10,09,26,27.40
2017,01,10,09,27,40.20
2017,01,10,09,28,30.60
2017,01,10,09,29,33.80
2017,01,10,09,30,32.20
2017,01,10,09,31,20.90
2017,01,10,09,32,32.20
2017,01,10,09,33,30.60
2017,01,10,09,34,27.40
2017,01,10,09,35,35.40
2017,01,10,09,36,33.80
2017,01,10,09,37,33.80
2017,01,10,09,38,32.20
2017,01,10,09,39,29.00
2017,01,10,09,40,30.60
2017,01,10,09,41,29.00
2017,01,10,09,42,35.40
2017,01,10,09,43,30.60
2017,01,10,09,44,27.40
2017,01,10,09,45,30.60
2017,01,10,09,46,27.40
2017,01,10,09,47,32.20
2017,01,10,09,48,25.70
2017,01,10,09,49,20.90
2017,01,10,09,50,32.20
2017,01,10,09,51,35.40
2017,01,10,09,52,25.70
2017,01,10,09,53,20.90
2017,01,10,09,54,38.60
2017,01,10,09,55,32.20
2017,01,10,09,56,19.30
2017,01,10,09,57,30.60
2017,01,10,09,58,25.70
2017,01,10,09,59,25.70
2017,01,10,10,00,20.90
2017,01,10,10,01,24.20
2017,01,10,10,02,27.40
2017,01,10,10,03,33.80
2017,01,10,10,04,29.00
2017,01,10,10,05,32.20
2017,01,10,10,06,33.80
2017,01,10,10,07,30.60
2017,01,10,10,08,25.70
2017,01,10,10,09,33.80
2017,01,10,10,10,29.00
2017,01,10,10,11,22.50
2017,01,10,10,12,32.20
2017,01,10,10,13,22.50
2017,01,10,10,14,22.50
2017,01,10,10,15,29.00
2017,01,10,10,16,41.80
2017,01,10,10,17,32.20
2017,01,10,10,18,37.00
2017,01,10,10,19,29.00
2017,01,10,10,20,32.20
2017,01,10,10,21,29.00
2017,01,10,10,22,24.20
2017,01,10,10,23,30.60
2017,01,10,10,24,32.20
2017,01,10,10,25,27.40
2017,01,10,10,26,37.00
2017,01,10,10,27,33.80
2017,01,10,10,28,30.60
2017,01,10,10,29,32.20
2017,01,10,10,30,37.00
2017,01,10,10,31,29.00
2017,01,10,10,32,33.80
2017,01,10,10,33,27.40
2017,01,10,10,34,30.60
2017,01,10,10,35,32.20
2017,01,10,10,36,30.60
2017,01,10,10,37,33.80
2017,01,10,10,38,25.70
2017,01,10,10,39,45.10
2017,01,10,10,40,30.60
2017,01,10,10,41,20.90
2017,01,10,10,42,35.40
2017,01,10,10,43,37.00
2017,01,10,10,44,29.00
2017,01,10,10,45,32.20
2017,01,10,10,46,37.00
2017,01,10,10,47,40.20
2017,01,10,10,48,33.80
2017,01,10,10,49,24.20
2017,01,10,10,50,37.00
2017,01,10,10,51,32.20
2017,01,10,10,52,27.40
2017,01,10,10,53,35.40
2017,01,10,10,54,32.20
2017,01,10,10,55,30.60
2017,01,10,10,56,22.50
2017,01,10,10,57,27.40
2017,01,10,10,58,24.20
2017,01,10,10,59,32.20
2017,01,10,11,00,22.50
2017,01,10,11,01,53.10
2017,01,10,11,02,38.60
2017,01,10,11,03,33.80
2017,01,10,11,04,35.40
2017,01,10,11,05,38.60
2017,01,10,11,06,30.60
2017,01,10,11,07,38.60
2017,01,10,11,08,29.00
2017,01,10,11,09,30.60
2017,01,10,11,10,25.70
2017,01,10,11,11,46.70
2017,01,10,11,12,25.70
2017,01,10,11,13,33.80
2017,01,10,11,14,32.20
2017,01,10,11,15,29.00
2017,01,10,11,16,30.60
2017,01,10,11,17,22.50
2017,01,10,11,18,30.60
2017,01,10,11,19,35.40
2017,01,10,11,20,25.70
2017,01,10,11,21,27.40
2017,01,10,11,22,38.60
2017,01,10,11,23,37.00
2017,01,10,11,24,33.80
2017,01,10,11,25,38.60
2017,01,10,11,26,37.00
2017,01,10,11,27,32.20
2017,01,10,11,28,22.50
2017,01,10,11,29,29.00
2017,01,10,11,30,29.00
2017,01,10,11,31,27.40
2017,01,10,11,32,38.60
2017,01,10,11,33,29.00
2017,01,10,11,34,35.40
2017,01,10,11,35,32.20
2017,01,10,11,36,27.40
2017,01,10,11,37,25.70
2017,01,10,11,38,51.50
2017,01,10,11,39,27.40
2017,01,10,11,40,35.40
2017,01,10,11,41,29.00
2017,01,10,11,42,33.80
2017,01,10,11,43,30.60
2017,01,10,11,44,38.60
2017,01,10,11,45,41.80
2017,01,10,11,46,33.80
2017,01,10,11,47,48.30
2017,01,10,11,48,43.50
2017,01,10,11,49,35.40
2017,01,10,11,50,24.20
2017,01,10,11,51,22.50
2017,01,10,11,52,29.00
2017,01,10,11,53,32.20
2017,01,10,11,54,37.00
2017,01,10,11,55,35.40
2017,01,10,11,56,35.40
2017,01,10,11,57,35.40
2017,01,10,11,58,40.20
2017,01,10,11,59,38.60
2017,01,10,12,00,33.80
2017,01,10,12,01,46.70
2017,01,10,12,02,38.60
2017,01,10,12,03,41.80
2017,01,10,12,04,33.80
2017,01,10,12,05,33.80
2017,01,10,12,06,38.60
2017,01,10,12,07,40.20
2017,01,10,12,08,40.20
2017,01,10,12,09,46.70
2017,01,10,12,10,35.40
2017,01,10,12,11,35.40
2017,01,10,12,12,32.20
2017,01,10,12,13,45.10
2017,01,10,12,14,40.20
2017,01,10,12,15,51.50
2017,01,10,12,16,40.20
2017,01,10,12,17,32.20
2017,01,10,12,18,45.10
2017,01,10,12,19,33.80
2017,01,10,12,20,29.00
2017,01,10,12,21,33.80
2017,01,10,12,22,33.80
2017,01,10,12,23,30.60
2017,01,10,12,24,25.70
2017,01,10,12,25,22.50
2017,01,10,12,26,25.70
2017,01,10,12,27,35.40
2017,01,10,12,28,29.00
2017,01,10,12,29,29.00
2017,01,10,12,30,27.40
2017,01,10,12,31,46.70
2017,01,10,12,32,33.80
2017,01,10,12,33,37.00
2017,01,10,12,34,27.40
2017,01,10,12,35,35.40
2017,01,10,12,36,48.30
2017,01,10,12,37,25.70
2017,01,10,12,38,35.40
2017,01,10,12,39,27.40
2017,01,10,12,40,43.50
2017,01,10,12,41,40.20
2017,01,10,12,42,37.00
2017,01,10,12,43,30.60
2017,01,10,12,44,33.80
2017,01,10,12,45,41.80
2017,01,10,12,46,43.50
2017,01,10,12,47,29.00
2017,01,10,12,48,35.40
2017,01,10,12,49,37.00
2017,01,10,12,50,33.80
2017,01,10,12,51,25.70
2017,01,10,12,52,40.20
2017,01,10,12,53,25.70
2017,01,10,12,54,48.30
2017,01,10,12,55,24.20
2017,01,10,12,56,35.40
2017,01,10,12,57,37.00
2017,01,10,12,58,22.50
2017,01,10,12,59,40.20
2017,01,10,13,00,29.00
2017,01,10,13,01,53.10
2017,01,10,13,02,38.60
2017,01,10,13,03,38.60
2017,01,10,13,04,49.90
2017,01,10,13,05,25.70
2017,01,10,13,06,33.80
2017,01,10,13,07,32.20
2017,01,10,13,08,30.60
2017,01,10,13,09,38.60
2017,01,10,13,10,37.00
2017,01,10,13,11,32.20
2017,01,10,13,12,24.20
2017,01,10,13,13,20.90
2017,01,10,13,14,25.70
2017,01,10,13,15,37.00
2017,01,10,13,16,41.80
2017,01,10,13,17,38.60
2017,01,10,13,18,25.70
2017,01,10,13,19,40.20
2017,01,10,13,20,30.60
2017,01,10,13,21,24.20
2017,01,10,13,22,27.40
2017,01,10,13,23,33.80
2017,01,10,13,24,27.40
2017,01,10,13,25,48.30
2017,01,10,13,26,22.50
2017,01,10,13,27,32.20
2017,01,10,13,28,38.60
2017,01,10,13,29,35.40
2017,01,10,13,30,30.60
2017,01,10,13,31,30.60
2017,01,10,13,32,29.00
2017,01,10,13,33,24.20
2017,01,10,13,34,25.70
2017,01,10,13,35,35.40
2017,01,10,13,36,33.80
2017,01,10,13,37,22.50
2017,01,10,13,38,29.00
2017,01,10,13,39,32.20
2017,01,10,13,40,29.00
2017,01,10,13,41,20.90
2017,01,10,13,42,32.20
2017,01,10,13,43,38.60
2017,01,10,13,44,24.20
2017,01,10,13,45,24.20
2017,01,10,13,46,27.40
2017,01,10,13,47,25.70
2017,01,10,13,48,33.80
2017,01,10,13,49,29.00
2017,01,10,13,50,22.50
2017,01,10,13,51,24.20
2017,01,10,13,52,22.50
2017,01,10,13,53,29.00
2017,01,10,13,54,20.90
2017,01,10,13,55,37.00
2017,01,10,13,56,29.00
2017,01,10,13,57,27.40
2017,01,10,13,58,32.20
2017,01,10,13,59,24.20
2017,01,10,14,00,25.70
2017,01,10,14,01,25.70
2017,01,10,14,02,14.50
2017,01,10,14,03,30.60
2017,01,10,14,04,27.40
2017,01,10,14,05,32.20
2017,01,10,14,06,33.80
2017,01,10,14,07,35.40
2017,01,10,14,08,33.80
2017,01,10,14,09,41.80
2017,01,10,14,10,27.40
2017,01,10,14,11,41.80
2017,01,10,14,12,29.00
2017,01,10,14,13,27.40
2017,01,10,14,14,40.20
2017,01,10,14,15,25.70
2017,01,10,14,16,35.40
2017,01,10,14,17,20.90
2017,01,10,14,18,22.50
2017,01,10,14,19,27.40
2017,01,10,14,20,30.60
2017,01,10,14,21,24.20
2017,01,10,14,22,43.50
2017,01,10,14,23,37.00
2017,01,10,14,24,33.80
2017,01,10,14,25,27.40
2017,01,10,14,26,27.40
2017,01,10,14,27,29.00
2017,01,10,14,28,30.60
2017,01,10,14,29,40.20
2017,01,10,14,30,32.20
2017,01,10,14,31,25.70
2017,01,10,14,32,30.60
2017,01,10,14,33,30.60
2017,01,10,14,34,38.60
2017,01,10,14,35,19.30
2017,01,10,14,36,24.20
2017,01,10,14,37,29.00
2017,01,10,14,38,20.90
2017,01,10,14,39,24.20
2017,01,10,14,40,27.40
2017,01,10,14,41,32.20
2017,01,10,14,42,29.00
2017,01,10,14,43,22.50
2017,01,10,14,44,37.00
2017,01,10,14,45,38.60
2017,01,10,14,46,32.20
2017,01,10,14,47,24.20
2017,01,10,14,48,35.40
2017,01,10,14,49,38.60
2017,01,10,14,50,29.00
2017,01,10,14,51,35.40
2017,01,10,14,52,32.20
2017,01,10,14,53,33.80
2017,01,10,14,54,37.00
2017,01,10,14,55,22.50
2017,01,10,14,56,29.00
2017,01,10,14,57,25.70
2017,01,10,14,58,35.40
2017,01,10,14,59,33.80
2017,01,10,15,00,27.40
2017,01,10,15,01,27.40
2017,01,10,15,02,22.50
2017,01,10,15,03,20.90
2017,01,10,15,04,32.20
2017,01,10,15,05,24.20
2017,01,10,15,06,30.60
2017,01,10,15,07,41.80
2017,01,10,15,08,33.80
2017,01,10,15,09,35.40
2017,01,10,15,10,32.20
2017,01,10,15,11,30.60
2017,01,10,15,12,40.20
2017,01,10,15,13,37.00
2017,01,10,15,14,30.60
2017,01,10,15,15,29.00
2017,01,10,15,16,27.40
2017,01,10,15,17,29.00
2017,01,10,15,18,33.80
2017,01,10,15,19,29.00
2017,01,10,15,20,32.20
2017,01,10,15,21,32.20
2017,01,10,15,22,30.60
2017,01,10,15,23,33.80
2017,01,10,15,24,33.80
2017,01,10,15,25,19.30
2017,01,10,15,26,43.50
2017,01,10,15,27,22.50
2017,01,10,15,28,38.60
2017,01,10,15,29,25.70
2017,01,10,15,30,30.60
2017,01,10,15,31,29.00
2017,01,10,15,32,30.60
2017,01,10,15,33,29.00
2017,01,10,15,34,38.60
2017,01,10,15,35,53.10
2017,01,10,15,36,46.70
2017,01,10,15,37,37.00
2017,01,10,15,38,30.60
2017,01,10,15,39,35.40
2017,01,10,15,40,37.00
2017,01,10,15,41,43.50
2017,01,10,15,42,29.00
2017,01,10,15,43,27.40
2017,01,10,15,44,25.70
2017,01,10,15,45,40.20
2017,01,10,15,46,38.60
2017,01,10,15,47,29.00
2017,01,10,15,48,43.50
2017,01,10,15,49,27.40
2017,01,10,15,50,27.40
2017,01,10,15,51,25.70
2017,01,10,15,52,32.20
2017,01,10,15,53,33.80
2017,01,10,15,54,29.00
2017,01,10,15,55,27.40
2017,01,10,15,56,46.70
2017,01,10,15,57,30.60
2017,01,10,15,58,29.00
2017,01,10,15,59,33.80
2017,01,10,16,00,32.20
2017,01,10,16,01,30.60
2017,01,10,16,02,25.70
2017,01,10,16,03,25.70
2017,01,10,16,04,24.20
2017,01,10,16,05,27.40
2017,01,10,16,06,24.20
2017,01,10,16,07,27.40
2017,01,10,16,08,38.60
2017,01,10,16,09,38.60
2017,01,10,16,10,24.20
2017,01,10,16,11,25.70
2017,01,10,16,12,30.60
2017,01,10,16,13,33.80
2017,01,10,16,14,33.80
2017,01,10,16,15,33.80
2017,01,10,16,16,37.00
2017,01,10,16,17,35.40
2017,01,10,16,18,45.10
2017,01,10,16,19,32.20
2017,01,10,16,20,38.60
2017,01,10,16,21,25.70
2017,01,10,16,22,38.60
2017,01,10,16,23,33.80
2017,01,10,16,24,35.40
2017,01,10,16,25,29.00
2017,01,10,16,26,24.20
2017,01,10,16,27,40.20
2017,01,10,16,28,46.70
2017,01,10,16,29,30.60
2017,01,10,16,30,33.80
2017,01,10,16,31,35.40
2017,01,10,16,32,41.80
2017,01,10,16,33,40.20
2017,01,10,16,34,43.50
2017,01,10,16,35,32.20
2017,01,10,16,36,35.40
2017,01,10,16,37,48.30
2017,01,10,16,38,29.00
2017,01,10,16,39,35.40
2017,01,10,16,40,30.60
2017,01,10,16,41,48.30
2017,01,10,16,42,40.20
2017,01,10,16,43,38.60
2017,01,10,16,44,33.80
2017,01,10,16,45,29.00
2017,01,10,16,46,43.50
2017,01,10,16,47,32.20
2017,01,10,16,48,24.20
2017,01,10,16,49,43.50
2017,01,10,16,50,37.00
2017,01,10,16,51,33.80
2017,01,10,16,52,29.00
2017,01,10,16,53,43.50
2017,01,10,16,54,37.00
2017,01,10,16,55,40.20
2017,01,10,16,56,37.00
2017,01,10,16,57,35.40
2017,01,10,16,58,48.30
2017,01,10,16,59,41.80
2017,01,10,17,00,53.10
2017,01,10,17,01,35.40
2017,01,10,17,02,38.60
2017,01,10,17,03,38.60
2017,01,10,17,04,41.80
2017,01,10,17,05,33.80
2017,01,10,17,06,29.00
2017,01,10,17,07,27.40
2017,01,10,17,08,46.70
2017,01,10,17,09,25.70
2017,01,10,17,10,37.00
2017,01,10,17,11,46.70
2017,01,10,17,12,35.40
2017,01,10,17,13,32.20
2017,01,10,17,14,32.20
2017,01,10,17,15,40.20
2017,01,10,17,16,37.00
2017,01,10,17,17,20.90
2017,01,10,17,18,41.80
2017,01,10,17,19,41.80
2017,01,10,17,20,49.90
2017,01,10,17,21,41.80
2017,01,10,17,22,35.40
2017,01,10,17,23,35.40
2017,01,10,17,24,38.60
2017,01,10,17,25,54.70
2017,01,10,17,26,35.40